Lid_Strength_Index
1 0 0 0 0 0 0 0 0 0 0 0 0 0 0 0 0 -0 0 -1 -1 -1 -2 -2 -2 -2 -1 -1 -1 -1 -1 -1 -1 -2 -1 -1 -2 -1 -2 -1 -1 -1 -2
0 0 1 1 2 2 2 1 1 0 1 0 0 0 0 0 0 0 0 0 -1 -1 -2 -1 -2 -2 -2 -1 -1 -1 -1 -1 -1 -1 -1 -1 -1 -1 -1 -1 -1 -1 -2
1 2 3 3 2 3 3 3 2 1 1 1 1 1 1 0 0 0 -0 1 -0 -1 -2 -2 -2 -2 -2 -2 -1 -1 -1 -1 -1 -1 -1 -1 -1 -2 -2 -1 -1 -1 -1
2 3 3 4 4 4 4 3 4 3 2 2 3 2 1 1 1 0 0 1 0 -0 -1 -2 -2 -2 -2 -2 -2 -1 -1 -1 -1 -1 -1 -1 -1 -2 -2 -1 -1 -1 -1
2 2 3 3 4 4 4 4 4 3 3 3 3 3 3 2 1 0 1 1 1 0 1 -1 -1 -2 -2 -2 -2 -2 -1 -1 -1 -1 -1 -1 -1 -1 -1 -1 -1 -1 -1
2 3 3 3 4 4 4 5 4 4 3 3 2 3 3 2 2 2 3 1 1 1 1 0 0 -0 -2 -2 -2 -2 -2 -1 -1 -1 -1 -1 -1 -1 -1 -1 -2 -1 0
2 2 2 3 3 4 4 4 4 4 4 3 4 5 4 3 3 2 3 2 2 1 1 1 1 1 -0 -1 -1 -2 -2 -1 -1 -1 -1 -1 -1 -1 -1 -2 -2 -1 -1
1 2 3 3 3 4 5 4 4 5 4 4 5 5 7 5 5 3 3 2 2 2 1 1 1 1 0 0 -0 -2 -2 -1 -1 -1 -1 -1 -1 -1 -1 -1 -1 -1 -1
1 1 2 2 3 3 3 4 4 4 5 5 3 4 6 7 6 5 4 3 3 3 3 2 1 1 1 1 -0 -1 -2 -2 -1 -1 -1 -1 -1 -1 -1 -1 -1 -1 -1
1 0 2 2 2 2 3 3 3 4 5 4 4 3 3 4 6 7 5 4 3 3 3 3 2 1 1 1 -1 -1 -1 -1 -1 -1 -1 -1 -1 -1 -1 -1 -1 -1 -1
1 1 2 2 2 2 3 3 4 4 4 5 5 5 5 5 6 6 7 5 4 3 3 3 2 2 1 0 1 0 -1 -1 -1 -1 -1 -1 -1 -1 -1 -1 -1 -1 -1
1 1 2 2 2 3 3 3 3 3 4 5 5 5 5 5 6 6 6 6 6 5 3 3 3 2 1 1 -1 -1 -0 0 1 1 0 -0 -1 -1 -1 -1 -1 -1 -1
2 2 2 2 2 3 3 2 3 3 3 4 4 4 5 5 5 5 5 6 6 5 4 3 3 2 1 1 0 -0 -1 1 1 2 1 1 0 -0 -0 -1 -1 -1 -1
2 2 2 2 2 2 2 2 3 3 4 4 4 4 4 5 4 4 5 6 7 6 5 5 3 2 2 1 1 -0 1 1 2 2 3 2 1 1 1 0 0 -0 -1
2 2 2 2 2 2 2 2 3 4 4 4 4 4 5 4 4 4 4 5 5 7 7 5 4 3 2 1 0 1 1 1 1 3 3 2 2 2 2 2 1 1 0
2 2 2 3 3 2 2 2 3 4 4 4 4 4 4 4 4 3 4 4 4 5 7 5 4 2 1 1 0 1 1 2 2 3 2 2 3 3 3 2 2 2 1
2 2 2 3 2 2 2 3 3 4 3 4 3 3 3 3 3 3 4 4 4 5 6 3 2 2 3 2 1 2 1 2 2 3 2 2 3 4 3 3 3 2 2
2 2 2 2 2 2 3 3 3 3 3 3 3 3 3 3 3 4 4 4 4 4 4 4 4 2 2 1 1 1 1 1 2 3 3 4 3 4 4 5 5 4 3
2 2 3 2 3 3 3 4 2 2 3 3 3 3 3 3 4 4 4 4 3 3 4 4 3 2 2 1 2 2 2 2 2 3 4 4 4 4 4 4 4 4 5
2 3 2 2 3 3 3 3 2 2 3 3 3 3 3 3 3 4 3 3 3 4 3 4 3 3 3 2 2 3 3 3 3 2 3 3 4 3 4 4 4 4 6
3 3 3 3 3 3 2 2 2 3 3 3 3 3 4 3 3 4 3 3 3 3 3 4 5 3 3 3 3 3 4 3 3 3 3 3 3 3 3 4 3 4 6
4 4 4 3 3 2 8 7 4 3 3 3 4 5 4 4 4 4 5 4 2 3 4 4 6 4 4 3 3 3 4 4 4 3 4 4 3 3 3 2 4 6 7
5 5 4 3 3 4 9 8 6 2 3 4 5 5 3 2 3 3 6 5 5 5 4 3 5 4 3 3 2 3 4 5 4 3 4 6 3 4 3 4 6 7 7
5 5 4 4 5 6 10 9 8 4 4 4 5 3 3 2 2 2 3 2 2 3 3 3 3 4 3 2 2 2 4 4 3 3 3 5 4 5 4 4 7 7 8
5 5 5 5 6 6 11 11 6 4 4 4 4 3 3 2 6 8 2 2 3 5 8 8 7 8 9 7 4 3 3 3 5 4 3 5 4 5 4 5 5 7 8
4 4 4 4 7 7 11 11 5 2 3 3 3 4 9 4 10 9 2 3 4 5 5 4 4 6 6 6 6 2 2 3 4 5 4 4 4 4 5 4 4 5 6